Location: Dos Palmas
(32.4468°N, 116.8732°W)
Time: 00:47:56
(UTC+00:00)

Cosmos 2227 - Pass Details

Date: 20 June 2021
Orbit: 835 x 860 km, 71.0° (Epoch: 01 August)

Event Time Altitude Azimuth Distance (km) Brightness Sun altitude
Rises 03:56:45 0° 340° (NNW) 3,386 8.4 -11.3°
Reaches altitude 10° 03:59:11 10° 341° (NNW) 2,449 7.5 -11.7°
Maximum altitude 04:04:49 85° 70° (ENE) 844 4.2 -12.6°
Enters shadow 04:09:38 14° 159° (SSE) 2,141 5.8 -13.4°
